This is the latest recevied weather packets stored in our database for station/object LA3SP-1. If no packets are shown the sender has not sent any weather packets the latest 10 day(s).
| Time | Temp. | Humidity | Pressure | Rain* | Wind** | Luminosity | Snow |
|---|---|---|---|---|---|---|---|
| 1778000517 | 0° C | 59% | 1005.2 hPa | 0 mm | - | - | - |
| 1777999916 | 0° C | 59% | 1005.2 hPa | 0 mm | - | - | - |
| 1777999314 | 0.56° C | 59% | 1005.1 hPa | 0 mm | - | - | - |
| 1777998713 | 0.56° C | 57% | 1005.4 hPa | 0 mm | - | - | - |
| 1777998111 | 1.67° C | 53% | 1005.4 hPa | 0 mm | - | - | - |
| 1777997510 | 2.22° C | 50% | 1005.3 hPa | 0 mm | - | - | - |
| 1777996308 | 4.44° C | 50% | 1004.9 hPa | 0 mm | - | - | - |
| 1777995706 | 4.44° C | 50% | 1005 hPa | 0 mm | - | - | - |
| 1777995105 | 4.44° C | 52% | 1005.1 hPa | 0 mm | - | - | - |
| 1777994503 | 3.89° C | 53% | 1005 hPa | 0 mm | - | - | - |
| 1777993902 | 2.78° C | 51% | 1004.9 hPa | 0 mm | - | - | - |
| 1777991496 | 2.78° C | 47% | 1004.9 hPa | 0 mm | - | - | - |
| 1777990895 | 4.44° C | 47% | 1004.8 hPa | 0 mm | - | - | - |
| 1777989692 | 3.89° C | 50% | 1004.7 hPa | 0 mm | - | - | - |
| 1777989090 | 3.89° C | 48% | 1004.9 hPa | 0 mm | - | - | - |
| 1777987888 | 4.44° C | 49% | 1005 hPa | 0 mm | - | - | - |
| 1777987287 | 3.89° C | 50% | 1004.9 hPa | 0 mm | - | - | - |
| 1777986685 | 3.33° C | 50% | 1005 hPa | 0 mm | - | - | - |
| 1777986084 | 2.78° C | 49% | 1004.9 hPa | 0 mm | - | - | - |
| 1777985482 | 3.33° C | 45% | 1005.1 hPa | 0 mm | - | - | - |
| 1777984881 | 3.89° C | 46% | 1005 hPa | 0 mm | - | - | - |
| 1777983678 | 3.89° C | 45% | 1005.1 hPa | 0 mm | - | - | - |
| 1777983077 | 3.33° C | 45% | 1005 hPa | 0 mm | - | - | - |
| 1777982476 | 5° C | 44% | 1004.9 hPa | 0 mm | - | - | - |
| 1777981874 | 5° C | 47% | 1005 hPa | 0 mm | - | - | - |
* Rain latest 24 hours (hover to see other rain measurements)
** Current wind speed in m/s (hover to see current wind gust speed)